Year,Month,Day,Hour,Minute,Value (Times are PST for temperature in C)
2007,06,26,00,00,7.80
2007,06,26,00,01,7.80
2007,06,26,00,02,7.80
2007,06,26,00,03,7.80
2007,06,26,00,04,7.70
2007,06,26,00,05,7.70
2007,06,26,00,06,7.70
2007,06,26,00,07,7.70
2007,06,26,00,08,7.60
2007,06,26,00,09,7.60
2007,06,26,00,10,7.60
2007,06,26,00,11,7.60
2007,06,26,00,12,7.60
2007,06,26,00,13,7.50
2007,06,26,00,14,7.50
2007,06,26,00,15,7.50
2007,06,26,00,16,7.50
2007,06,26,00,17,7.40
2007,06,26,00,18,7.40
2007,06,26,00,19,7.40
2007,06,26,00,20,7.40
2007,06,26,00,21,7.30
2007,06,26,00,22,7.30
2007,06,26,00,23,7.30
2007,06,26,00,24,7.30
2007,06,26,00,25,7.20
2007,06,26,00,26,7.20
2007,06,26,00,27,7.20
2007,06,26,00,28,7.20
2007,06,26,00,29,7.20
2007,06,26,00,30,7.20
2007,06,26,00,31,7.20
2007,06,26,00,32,7.10
2007,06,26,00,33,7.10
2007,06,26,00,34,7.10
2007,06,26,00,35,7.10
2007,06,26,00,36,7.00
2007,06,26,00,37,7.00
2007,06,26,00,38,7.00
2007,06,26,00,39,6.90
2007,06,26,00,40,6.90
2007,06,26,00,41,6.90
2007,06,26,00,42,6.90
2007,06,26,00,43,6.80
2007,06,26,00,44,6.80
2007,06,26,00,45,6.80
2007,06,26,00,46,6.80
2007,06,26,00,47,6.80
2007,06,26,00,48,6.80
2007,06,26,00,49,6.70
2007,06,26,00,50,6.70
2007,06,26,00,51,6.70
2007,06,26,00,52,6.70
2007,06,26,00,53,6.70
2007,06,26,00,54,6.70
2007,06,26,00,55,6.60
2007,06,26,00,56,6.60
2007,06,26,00,57,6.60
2007,06,26,00,58,6.60
2007,06,26,00,59,6.60
2007,06,26,01,00,6.60
2007,06,26,01,01,6.60
2007,06,26,01,02,6.50
2007,06,26,01,03,6.50
2007,06,26,01,04,6.50
2007,06,26,01,05,6.50
2007,06,26,01,06,6.50
2007,06,26,01,07,6.40
2007,06,26,01,08,6.40
2007,06,26,01,09,6.40
2007,06,26,01,10,6.40
2007,06,26,01,11,6.40
2007,06,26,01,12,6.40
2007,06,26,01,13,6.40
2007,06,26,01,14,6.30
2007,06,26,01,15,6.30
2007,06,26,01,16,6.30
2007,06,26,01,17,6.30
2007,06,26,01,18,6.30
2007,06,26,01,19,6.30
2007,06,26,01,20,6.20
2007,06,26,01,21,6.20
2007,06,26,01,22,6.20
2007,06,26,01,23,6.20
2007,06,26,01,24,6.20
2007,06,26,01,25,6.20
2007,06,26,01,26,6.10
2007,06,26,01,27,6.10
2007,06,26,01,28,6.10
2007,06,26,01,29,6.10
2007,06,26,01,30,6.10
2007,06,26,01,31,6.10
2007,06,26,01,32,6.10
2007,06,26,01,33,6.10
2007,06,26,01,34,6.10
2007,06,26,01,35,6.10
2007,06,26,01,36,6.10
2007,06,26,01,37,6.00
2007,06,26,01,38,6.00
2007,06,26,01,39,6.00
2007,06,26,01,40,6.00
2007,06,26,01,41,6.00
2007,06,26,01,42,6.00
2007,06,26,01,43,6.00
2007,06,26,01,44,6.00
2007,06,26,01,45,6.00
2007,06,26,01,46,5.90
2007,06,26,01,47,5.90
2007,06,26,01,48,5.90
2007,06,26,01,49,5.90
2007,06,26,01,50,5.90
2007,06,26,01,51,5.90
2007,06,26,01,52,5.90
2007,06,26,01,53,5.90
2007,06,26,01,54,5.90
2007,06,26,01,55,5.80
2007,06,26,01,56,5.80
2007,06,26,01,57,5.80
2007,06,26,01,58,5.80
2007,06,26,01,59,5.80
2007,06,26,02,00,5.80
2007,06,26,02,01,5.80
2007,06,26,02,02,5.80
2007,06,26,02,03,5.80
2007,06,26,02,04,5.80
2007,06,26,02,05,5.80
2007,06,26,02,06,5.70
2007,06,26,02,07,5.70
2007,06,26,02,08,5.70
2007,06,26,02,09,5.70
2007,06,26,02,10,5.70
2007,06,26,02,11,5.70
2007,06,26,02,12,5.70
2007,06,26,02,13,5.70
2007,06,26,02,14,5.70
2007,06,26,02,15,5.70
2007,06,26,02,16,5.70
2007,06,26,02,17,5.70
2007,06,26,02,18,5.70
2007,06,26,02,19,5.70
2007,06,26,02,20,5.70
2007,06,26,02,21,5.70
2007,06,26,02,22,5.70
2007,06,26,02,23,5.70
2007,06,26,02,24,5.70
2007,06,26,02,25,5.70
2007,06,26,02,26,5.70
2007,06,26,02,27,5.70
2007,06,26,02,28,5.70
2007,06,26,02,29,5.60
2007,06,26,02,30,5.60
2007,06,26,02,31,5.60
2007,06,26,02,32,5.60
2007,06,26,02,33,5.60
2007,06,26,02,34,5.60
2007,06,26,02,35,5.60
2007,06,26,02,36,5.60
2007,06,26,02,37,5.60
2007,06,26,02,38,5.60
2007,06,26,02,39,5.60
2007,06,26,02,40,5.60
2007,06,26,02,41,5.60
2007,06,26,02,42,5.60
2007,06,26,02,43,5.60
2007,06,26,02,44,5.60
2007,06,26,02,45,5.50
2007,06,26,02,46,5.50
2007,06,26,02,47,5.50
2007,06,26,02,48,5.50
2007,06,26,02,49,5.50
2007,06,26,02,50,5.50
2007,06,26,02,51,5.50
2007,06,26,02,52,5.50
2007,06,26,02,53,5.50
2007,06,26,02,54,5.40
2007,06,26,02,55,5.40
2007,06,26,02,56,5.40
2007,06,26,02,57,5.40
2007,06,26,02,58,5.40
2007,06,26,02,59,5.50
2007,06,26,03,00,5.50
2007,06,26,03,01,5.50
2007,06,26,03,02,5.50
2007,06,26,03,03,5.50
2007,06,26,03,04,5.50
2007,06,26,03,05,5.50
2007,06,26,03,06,5.50
2007,06,26,03,07,5.50
2007,06,26,03,08,5.50
2007,06,26,03,09,5.50
2007,06,26,03,10,5.60
2007,06,26,03,11,5.60
2007,06,26,03,12,5.60
2007,06,26,03,13,5.60
2007,06,26,03,14,5.60
2007,06,26,03,15,5.60
2007,06,26,03,16,5.60
2007,06,26,03,17,5.70
2007,06,26,03,18,5.70
2007,06,26,03,19,5.70
2007,06,26,03,20,5.70
2007,06,26,03,21,5.70
2007,06,26,03,22,5.70
2007,06,26,03,23,5.70
2007,06,26,03,24,5.70
2007,06,26,03,25,5.70
2007,06,26,03,26,5.70
2007,06,26,03,27,5.80
2007,06,26,03,28,5.80
2007,06,26,03,29,5.80
2007,06,26,03,30,5.80
2007,06,26,03,31,5.80
2007,06,26,03,32,5.80
2007,06,26,03,33,5.80
2007,06,26,03,34,5.80
2007,06,26,03,35,5.80
2007,06,26,03,36,5.80
2007,06,26,03,37,5.90
2007,06,26,03,38,5.90
2007,06,26,03,39,5.90
2007,06,26,03,40,6.00
2007,06,26,03,41,6.10
2007,06,26,03,42,6.20
2007,06,26,03,43,6.20
2007,06,26,03,44,6.30
2007,06,26,03,45,6.30
2007,06,26,03,46,6.30
2007,06,26,03,47,6.40
2007,06,26,03,48,6.40
2007,06,26,03,49,6.50
2007,06,26,03,50,6.50
2007,06,26,03,51,6.60
2007,06,26,03,52,6.70
2007,06,26,03,53,6.70
2007,06,26,03,54,6.70
2007,06,26,03,55,6.80
2007,06,26,03,56,6.80
2007,06,26,03,57,6.90
2007,06,26,03,58,6.90
2007,06,26,03,59,6.90
2007,06,26,04,00,6.90
2007,06,26,04,01,6.90
2007,06,26,04,02,7.00
2007,06,26,04,03,7.00
2007,06,26,04,04,7.20
2007,06,26,04,05,7.20
2007,06,26,04,06,7.30
2007,06,26,04,07,7.40
2007,06,26,04,08,7.40
2007,06,26,04,09,7.50
2007,06,26,04,10,7.60
2007,06,26,04,11,7.60
2007,06,26,04,12,7.70
2007,06,26,04,13,7.70
2007,06,26,04,14,7.70
2007,06,26,04,15,7.80
2007,06,26,04,16,7.80
2007,06,26,04,17,7.80
2007,06,26,04,18,7.90
2007,06,26,04,19,7.90
2007,06,26,04,20,7.90
2007,06,26,04,21,7.90
2007,06,26,04,22,7.90
2007,06,26,04,23,8.00
2007,06,26,04,24,8.10
2007,06,26,04,25,8.10
2007,06,26,04,26,8.00
2007,06,26,04,27,8.00
2007,06,26,04,28,7.90
2007,06,26,04,29,7.90
2007,06,26,04,30,7.90
2007,06,26,04,31,8.10
2007,06,26,04,32,8.10
2007,06,26,04,33,8.20
2007,06,26,04,34,8.20
2007,06,26,04,35,8.30
2007,06,26,04,36,8.30
2007,06,26,04,37,8.30
2007,06,26,04,38,8.30
2007,06,26,04,39,8.30
2007,06,26,04,40,8.30
2007,06,26,04,41,8.30
2007,06,26,04,42,8.30
2007,06,26,04,43,8.30
2007,06,26,04,44,8.30
2007,06,26,04,45,8.40
2007,06,26,04,46,8.40
2007,06,26,04,47,8.40
2007,06,26,04,48,8.40
2007,06,26,04,49,8.40
2007,06,26,04,50,8.30
2007,06,26,04,51,8.30
2007,06,26,04,52,8.30
2007,06,26,04,53,8.30
2007,06,26,04,54,8.20
2007,06,26,04,55,8.20
2007,06,26,04,56,8.20
2007,06,26,04,57,8.30
2007,06,26,04,58,8.30
2007,06,26,04,59,8.30
2007,06,26,05,00,8.30
2007,06,26,05,01,8.30
2007,06,26,05,02,8.20
2007,06,26,05,03,8.10
2007,06,26,05,04,8.10
2007,06,26,05,05,8.00
2007,06,26,05,06,7.90
2007,06,26,05,07,7.90
2007,06,26,05,08,7.90
2007,06,26,05,09,7.80
2007,06,26,05,10,7.90
2007,06,26,05,11,7.90
2007,06,26,05,12,7.80
2007,06,26,05,13,7.90
2007,06,26,05,14,7.90
2007,06,26,05,15,7.90
2007,06,26,05,16,7.90
2007,06,26,05,17,7.90
2007,06,26,05,18,7.90
2007,06,26,05,19,7.90
2007,06,26,05,20,8.00
2007,06,26,05,21,8.00
2007,06,26,05,22,8.10
2007,06,26,05,23,8.20
2007,06,26,05,24,8.20
2007,06,26,05,25,8.20
2007,06,26,05,26,8.20
2007,06,26,05,27,8.20
2007,06,26,05,28,8.30
2007,06,26,05,29,8.20
2007,06,26,05,30,8.20
2007,06,26,05,31,8.20
2007,06,26,05,32,8.20
2007,06,26,05,33,8.20
2007,06,26,05,34,8.10
2007,06,26,05,35,8.10
2007,06,26,05,36,8.10
2007,06,26,05,37,8.10
2007,06,26,05,38,8.10
2007,06,26,05,39,8.10
2007,06,26,05,40,8.10
2007,06,26,05,41,8.10
2007,06,26,05,42,8.10
2007,06,26,05,43,8.20
2007,06,26,05,44,8.30
2007,06,26,05,45,8.40
2007,06,26,05,46,8.40
2007,06,26,05,47,8.40
2007,06,26,05,48,8.40
2007,06,26,05,49,8.40
2007,06,26,05,50,8.40
2007,06,26,05,51,8.40
2007,06,26,05,52,8.50
2007,06,26,05,53,8.50
2007,06,26,05,54,8.50
2007,06,26,05,55,8.60
2007,06,26,05,56,8.70
2007,06,26,05,57,8.80
2007,06,26,05,58,8.90
2007,06,26,05,59,8.90
2007,06,26,06,00,8.90
2007,06,26,06,01,9.00
2007,06,26,06,02,9.00
2007,06,26,06,03,9.00
2007,06,26,06,04,9.00
2007,06,26,06,05,9.00
2007,06,26,06,06,9.10
2007,06,26,06,07,9.10
2007,06,26,06,08,9.20
2007,06,26,06,09,9.20
2007,06,26,06,10,9.30
2007,06,26,06,11,9.30
2007,06,26,06,12,9.40
2007,06,26,06,13,9.40
2007,06,26,06,14,9.50
2007,06,26,06,15,9.60
2007,06,26,06,16,9.60
2007,06,26,06,17,9.70
2007,06,26,06,18,9.70
2007,06,26,06,19,9.70
2007,06,26,06,20,9.80
2007,06,26,06,21,9.80
2007,06,26,06,22,9.90
2007,06,26,06,23,9.90
2007,06,26,06,24,10.00
2007,06,26,06,25,10.10
2007,06,26,06,26,10.10
2007,06,26,06,27,10.20
2007,06,26,06,28,10.20
2007,06,26,06,29,10.20
2007,06,26,06,30,10.30
2007,06,26,06,31,10.30
2007,06,26,06,32,10.30
2007,06,26,06,33,10.30
2007,06,26,06,34,10.40
2007,06,26,06,35,10.40
2007,06,26,06,36,10.50
2007,06,26,06,37,10.50
2007,06,26,06,38,10.60
2007,06,26,06,39,10.60
2007,06,26,06,40,10.70
2007,06,26,06,41,10.80
2007,06,26,06,42,10.80
2007,06,26,06,43,10.80
2007,06,26,06,44,10.90
2007,06,26,06,45,10.90
2007,06,26,06,46,10.90
2007,06,26,06,47,11.00
2007,06,26,06,48,11.00
2007,06,26,06,49,11.10
2007,06,26,06,50,11.10
2007,06,26,06,51,11.10
2007,06,26,06,52,11.20
2007,06,26,06,53,11.30
2007,06,26,06,54,11.30
2007,06,26,06,55,11.40
2007,06,26,06,56,11.40
2007,06,26,06,57,11.40
2007,06,26,06,58,11.40
2007,06,26,06,59,11.40
2007,06,26,07,00,11.50
2007,06,26,07,01,11.50
2007,06,26,07,02,11.60
2007,06,26,07,03,11.60
2007,06,26,07,04,11.60
2007,06,26,07,05,11.60
2007,06,26,07,06,11.70
2007,06,26,07,07,11.70
2007,06,26,07,08,11.70
2007,06,26,07,09,11.80
2007,06,26,07,10,11.80
2007,06,26,07,11,11.80
2007,06,26,07,12,11.90
2007,06,26,07,13,11.90
2007,06,26,07,14,11.90
2007,06,26,07,15,12.00
2007,06,26,07,16,12.00
2007,06,26,07,17,12.10
2007,06,26,07,18,12.10
2007,06,26,07,19,12.10
2007,06,26,07,20,12.20
2007,06,26,07,21,12.20
2007,06,26,07,22,12.20
2007,06,26,07,23,12.20
2007,06,26,07,24,12.30
2007,06,26,07,25,12.30
2007,06,26,07,26,12.30
2007,06,26,07,27,12.30
2007,06,26,07,28,12.30
2007,06,26,07,29,12.40
2007,06,26,07,30,12.40
2007,06,26,07,31,12.40
2007,06,26,07,32,12.50
2007,06,26,07,33,12.50
2007,06,26,07,34,12.60
2007,06,26,07,35,12.60
2007,06,26,07,36,12.60
2007,06,26,07,37,12.70
2007,06,26,07,38,12.70
2007,06,26,07,39,12.70
2007,06,26,07,40,12.70
2007,06,26,07,41,12.80
2007,06,26,07,42,12.80
2007,06,26,07,43,12.80
2007,06,26,07,44,12.80
2007,06,26,07,45,12.90
2007,06,26,07,46,13.00
2007,06,26,07,47,13.00
2007,06,26,07,48,13.10
2007,06,26,07,49,13.10
2007,06,26,07,50,13.20
2007,06,26,07,51,13.30
2007,06,26,07,52,13.30
2007,06,26,07,53,13.20
2007,06,26,07,54,13.20
2007,06,26,07,55,13.20
2007,06,26,07,56,13.10
2007,06,26,07,57,13.10
2007,06,26,07,58,13.10
2007,06,26,07,59,13.10
2007,06,26,08,00,13.10
2007,06,26,08,01,13.10
2007,06,26,08,02,13.10
2007,06,26,08,03,13.10
2007,06,26,08,04,13.10
2007,06,26,08,05,13.20
2007,06,26,08,06,13.20
2007,06,26,08,07,13.20
2007,06,26,08,08,13.30
2007,06,26,08,09,13.40
2007,06,26,08,10,13.40
2007,06,26,08,11,13.30
2007,06,26,08,12,13.30
2007,06,26,08,13,13.30
2007,06,26,08,14,13.30
2007,06,26,08,15,13.30
2007,06,26,08,16,13.30
2007,06,26,08,17,13.40
2007,06,26,08,18,13.40
2007,06,26,08,19,13.50
2007,06,26,08,20,13.60
2007,06,26,08,21,13.60
2007,06,26,08,22,13.70
2007,06,26,08,23,13.70
2007,06,26,08,24,13.80
2007,06,26,08,25,13.80
2007,06,26,08,26,13.80
2007,06,26,08,27,13.90
2007,06,26,08,28,13.90
2007,06,26,08,29,14.00
2007,06,26,08,30,14.00
2007,06,26,08,31,14.10
2007,06,26,08,32,14.10
2007,06,26,08,33,14.20
2007,06,26,08,34,14.20
2007,06,26,08,35,14.20
2007,06,26,08,36,14.20
2007,06,26,08,37,14.30
2007,06,26,08,38,14.30
2007,06,26,08,39,14.30
2007,06,26,08,40,14.30
2007,06,26,08,41,14.20
2007,06,26,08,42,14.30
2007,06,26,08,43,14.30
2007,06,26,08,44,14.30
2007,06,26,08,45,14.30
2007,06,26,08,46,14.30
2007,06,26,08,47,14.30
2007,06,26,08,48,14.30
2007,06,26,08,49,14.30
2007,06,26,08,50,14.30
2007,06,26,08,51,14.30
2007,06,26,08,52,14.30
2007,06,26,08,53,14.40
2007,06,26,08,54,14.50
2007,06,26,08,55,14.50
2007,06,26,08,56,14.50
2007,06,26,08,57,14.50
2007,06,26,08,58,14.50
2007,06,26,08,59,14.60
2007,06,26,09,00,14.60
2007,06,26,09,01,14.70
2007,06,26,09,02,14.70
2007,06,26,09,03,14.70
2007,06,26,09,04,14.70
2007,06,26,09,05,14.70
2007,06,26,09,06,14.80
2007,06,26,09,07,14.80
2007,06,26,09,08,14.90
2007,06,26,09,09,14.90
2007,06,26,09,10,14.90
2007,06,26,09,11,14.90
2007,06,26,09,12,14.90
2007,06,26,09,13,14.90
2007,06,26,09,14,14.80
2007,06,26,09,15,14.80
2007,06,26,09,16,14.80
2007,06,26,09,17,14.90
2007,06,26,09,18,14.90
2007,06,26,09,19,14.80
2007,06,26,09,20,14.80
2007,06,26,09,21,14.80
2007,06,26,09,22,14.80
2007,06,26,09,23,15.00
2007,06,26,09,24,15.00
2007,06,26,09,25,15.00
2007,06,26,09,26,15.10
2007,06,26,09,27,15.30
2007,06,26,09,28,15.40
2007,06,26,09,29,15.40
2007,06,26,09,30,15.50
2007,06,26,09,31,15.40
2007,06,26,09,32,15.40
2007,06,26,09,33,15.30
2007,06,26,09,34,15.30
2007,06,26,09,35,15.30
2007,06,26,09,36,15.20
2007,06,26,09,37,15.20
2007,06,26,09,38,15.20
2007,06,26,09,39,15.20
2007,06,26,09,40,15.10
2007,06,26,09,41,15.00
2007,06,26,09,42,15.00
2007,06,26,09,43,15.00
2007,06,26,09,44,15.00
2007,06,26,09,45,15.00
2007,06,26,09,46,15.00
2007,06,26,09,47,15.00
2007,06,26,09,48,15.00
2007,06,26,09,49,15.00
2007,06,26,09,50,15.00
2007,06,26,09,51,15.00
2007,06,26,09,52,15.00
2007,06,26,09,53,15.00
2007,06,26,09,54,15.00
2007,06,26,09,55,15.00
2007,06,26,09,56,15.10
2007,06,26,09,57,15.10
2007,06,26,09,58,15.20
2007,06,26,09,59,15.20
2007,06,26,10,00,15.30
2007,06,26,10,01,15.30
2007,06,26,10,02,15.30
2007,06,26,10,03,15.30
2007,06,26,10,04,15.30
2007,06,26,10,05,15.30
2007,06,26,10,06,15.30
2007,06,26,10,07,15.30
2007,06,26,10,08,15.20
2007,06,26,10,09,15.20
2007,06,26,10,10,15.20
2007,06,26,10,11,15.10
2007,06,26,10,12,15.00
2007,06,26,10,13,15.00
2007,06,26,10,14,15.00
2007,06,26,10,15,15.00
2007,06,26,10,16,15.00
2007,06,26,10,17,15.00
2007,06,26,10,18,15.00
2007,06,26,10,19,15.00
2007,06,26,10,20,15.00
2007,06,26,10,21,15.00
2007,06,26,10,22,14.90
2007,06,26,10,23,14.80
2007,06,26,10,24,14.80
2007,06,26,10,25,14.80
2007,06,26,10,26,14.80
2007,06,26,10,27,14.80
2007,06,26,10,28,14.90
2007,06,26,10,29,15.00
2007,06,26,10,30,15.00
2007,06,26,10,31,15.00
2007,06,26,10,32,15.00
2007,06,26,10,33,15.00
2007,06,26,10,34,15.00
2007,06,26,10,35,15.00
2007,06,26,10,36,15.00
2007,06,26,10,37,15.10
2007,06,26,10,38,15.20
2007,06,26,10,39,15.30
2007,06,26,10,40,15.30
2007,06,26,10,41,15.30
2007,06,26,10,42,15.30
2007,06,26,10,43,15.40
2007,06,26,10,44,15.50
2007,06,26,10,45,15.60
2007,06,26,10,46,15.60
2007,06,26,10,47,15.60
2007,06,26,10,48,15.60
2007,06,26,10,49,15.70
2007,06,26,10,50,15.70
2007,06,26,10,51,15.80
2007,06,26,10,52,15.80
2007,06,26,10,53,15.80
2007,06,26,10,54,15.90
2007,06,26,10,55,16.00
2007,06,26,10,56,16.00
2007,06,26,10,57,16.10
2007,06,26,10,58,16.20
2007,06,26,10,59,16.20
2007,06,26,11,00,16.20
2007,06,26,11,01,16.20
2007,06,26,11,02,16.30
2007,06,26,11,03,16.30
2007,06,26,11,04,16.30
2007,06,26,11,05,16.30
2007,06,26,11,06,16.40
2007,06,26,11,07,16.40
2007,06,26,11,08,16.40
2007,06,26,11,09,16.40
2007,06,26,11,10,16.30
2007,06,26,11,11,16.30
2007,06,26,11,12,16.30
2007,06,26,11,13,16.30
2007,06,26,11,14,16.30
2007,06,26,11,15,16.30
2007,06,26,11,16,16.20
2007,06,26,11,17,16.20
2007,06,26,11,18,16.10
2007,06,26,11,19,16.20
2007,06,26,11,20,16.30
2007,06,26,11,21,16.40
2007,06,26,11,22,16.40
2007,06,26,11,23,16.40
2007,06,26,11,24,16.50
2007,06,26,11,25,16.50
2007,06,26,11,26,16.60
2007,06,26,11,27,16.60
2007,06,26,11,28,16.70
2007,06,26,11,29,16.70
2007,06,26,11,30,16.80
2007,06,26,11,31,16.80
2007,06,26,11,32,16.80
2007,06,26,11,33,16.90
2007,06,26,11,34,16.90
2007,06,26,11,35,16.90
2007,06,26,11,36,16.80
2007,06,26,11,37,16.90
2007,06,26,11,38,16.90
2007,06,26,11,39,16.90
2007,06,26,11,40,16.90
2007,06,26,11,41,16.90
2007,06,26,11,42,16.80
2007,06,26,11,43,16.70
2007,06,26,11,44,16.70
2007,06,26,11,45,16.70
2007,06,26,11,46,16.70
2007,06,26,11,47,16.80
2007,06,26,11,48,16.90
2007,06,26,11,49,16.90
2007,06,26,11,50,17.00
2007,06,26,11,51,17.00
2007,06,26,11,52,16.90
2007,06,26,11,53,16.90
2007,06,26,11,54,16.90
2007,06,26,11,55,16.90
2007,06,26,11,56,16.90
2007,06,26,11,57,16.90
2007,06,26,11,58,17.00
2007,06,26,11,59,17.00
2007,06,26,12,00,17.10
2007,06,26,12,01,17.10
2007,06,26,12,02,17.20
2007,06,26,12,03,17.30
2007,06,26,12,04,17.30
2007,06,26,12,05,17.30
2007,06,26,12,06,17.20
2007,06,26,12,07,17.20
2007,06,26,12,08,17.10
2007,06,26,12,09,17.10
2007,06,26,12,10,17.20
2007,06,26,12,11,17.20
2007,06,26,12,12,17.30
2007,06,26,12,13,17.40
2007,06,26,12,14,17.40
2007,06,26,12,15,17.40
2007,06,26,12,16,17.40
2007,06,26,12,17,17.40
2007,06,26,12,18,17.40
2007,06,26,12,19,17.40
2007,06,26,12,20,17.40
2007,06,26,12,21,17.40
2007,06,26,12,22,17.30
2007,06,26,12,23,17.30
2007,06,26,12,24,17.30
2007,06,26,12,25,17.30
2007,06,26,12,26,17.40
2007,06,26,12,27,17.50
2007,06,26,12,28,17.60
2007,06,26,12,29,17.70
2007,06,26,12,30,17.70
2007,06,26,12,31,17.70
2007,06,26,12,32,17.80
2007,06,26,12,33,17.80
2007,06,26,12,34,17.90
2007,06,26,12,35,17.90
2007,06,26,12,36,18.00
2007,06,26,12,37,18.10
2007,06,26,12,38,18.20
2007,06,26,12,39,18.30
2007,06,26,12,40,18.40
2007,06,26,12,41,18.40
2007,06,26,12,42,18.40
2007,06,26,12,43,18.50
2007,06,26,12,44,18.40
2007,06,26,12,45,18.30
2007,06,26,12,46,18.30
2007,06,26,12,47,18.30
2007,06,26,12,48,18.30
2007,06,26,12,49,18.30
2007,06,26,12,50,18.30
2007,06,26,12,51,18.30
2007,06,26,12,52,18.40
2007,06,26,12,53,18.40
2007,06,26,12,54,18.30
2007,06,26,12,55,18.20
2007,06,26,12,56,18.10
2007,06,26,12,57,18.10
2007,06,26,12,58,18.10
2007,06,26,12,59,18.10
2007,06,26,13,00,18.20
2007,06,26,13,01,18.30
2007,06,26,13,02,18.30
2007,06,26,13,03,18.20
2007,06,26,13,04,18.20
2007,06,26,13,05,18.10
2007,06,26,13,06,18.10
2007,06,26,13,07,18.10
2007,06,26,13,08,18.20
2007,06,26,13,09,18.30
2007,06,26,13,10,18.40
2007,06,26,13,11,18.50
2007,06,26,13,12,18.50
2007,06,26,13,13,18.60
2007,06,26,13,14,18.70
2007,06,26,13,15,18.70
2007,06,26,13,16,18.70
2007,06,26,13,17,18.60
2007,06,26,13,18,18.50
2007,06,26,13,19,18.50
2007,06,26,13,20,18.50
2007,06,26,13,21,18.50
2007,06,26,13,22,18.60
2007,06,26,13,23,18.60
2007,06,26,13,24,18.70
2007,06,26,13,25,18.70
2007,06,26,13,26,18.80
2007,06,26,13,27,18.80
2007,06,26,13,28,18.80
2007,06,26,13,29,18.80
2007,06,26,13,30,18.80
2007,06,26,13,31,18.80
2007,06,26,13,32,18.90
2007,06,26,13,33,19.00
2007,06,26,13,34,19.10
2007,06,26,13,35,19.10
2007,06,26,13,36,19.20
2007,06,26,13,37,19.30
2007,06,26,13,38,19.30
2007,06,26,13,39,19.40
2007,06,26,13,40,19.40
2007,06,26,13,41,19.40
2007,06,26,13,42,19.50
2007,06,26,13,43,19.60
2007,06,26,13,44,19.80
2007,06,26,13,45,19.90
2007,06,26,13,46,20.00
2007,06,26,13,47,20.10
2007,06,26,13,48,20.10
2007,06,26,13,49,20.00
2007,06,26,13,50,19.90
2007,06,26,13,51,19.90
2007,06,26,13,52,19.80
2007,06,26,13,53,19.80
2007,06,26,13,54,19.80
2007,06,26,13,55,19.90
2007,06,26,13,56,20.00
2007,06,26,13,57,20.10
2007,06,26,13,58,20.10
2007,06,26,13,59,20.20
2007,06,26,14,00,20.30
2007,06,26,14,01,20.30
2007,06,26,14,02,20.30
2007,06,26,14,03,20.30
2007,06,26,14,04,20.30
2007,06,26,14,05,20.30
2007,06,26,14,06,20.20
2007,06,26,14,07,20.20
2007,06,26,14,08,20.20
2007,06,26,14,09,20.10
2007,06,26,14,10,20.10
2007,06,26,14,11,20.00
2007,06,26,14,12,20.00
2007,06,26,14,13,20.00
2007,06,26,14,14,20.10
2007,06,26,14,15,20.10
2007,06,26,14,16,20.20
2007,06,26,14,17,20.20
2007,06,26,14,18,20.20
2007,06,26,14,19,20.30
2007,06,26,14,20,20.20
2007,06,26,14,21,20.10
2007,06,26,14,22,20.00
2007,06,26,14,23,19.90
2007,06,26,14,24,19.80
2007,06,26,14,25,19.70
2007,06,26,14,26,19.70
2007,06,26,14,27,19.70
2007,06,26,14,28,19.70
2007,06,26,14,29,19.80
2007,06,26,14,30,19.80
2007,06,26,14,31,19.70
2007,06,26,14,32,19.70
2007,06,26,14,33,19.60
2007,06,26,14,34,19.60
2007,06,26,14,35,19.50
2007,06,26,14,36,19.50
2007,06,26,14,37,19.50
2007,06,26,14,38,19.60
2007,06,26,14,39,19.60
2007,06,26,14,40,19.70
2007,06,26,14,41,19.60
2007,06,26,14,42,19.60
2007,06,26,14,43,19.60
2007,06,26,14,44,19.60
2007,06,26,14,45,19.50
2007,06,26,14,46,19.50
2007,06,26,14,47,19.40
2007,06,26,14,48,19.40
2007,06,26,14,49,19.40
2007,06,26,14,50,19.40
2007,06,26,14,51,19.40
2007,06,26,14,52,19.40
2007,06,26,14,53,19.40
2007,06,26,14,54,19.40
2007,06,26,14,55,19.50
2007,06,26,14,56,19.50
2007,06,26,14,57,19.50
2007,06,26,14,58,19.50
2007,06,26,14,59,19.50
2007,06,26,15,00,19.50
2007,06,26,15,01,19.50
2007,06,26,15,02,19.50
2007,06,26,15,03,19.50
2007,06,26,15,04,19.50
2007,06,26,15,05,19.50
2007,06,26,15,06,19.50
2007,06,26,15,07,19.60
2007,06,26,15,08,19.60
2007,06,26,15,09,19.60
2007,06,26,15,10,19.70
2007,06,26,15,11,19.70
2007,06,26,15,12,19.70
2007,06,26,15,13,19.70
2007,06,26,15,14,19.70
2007,06,26,15,15,19.70
2007,06,26,15,16,19.80
2007,06,26,15,17,19.80
2007,06,26,15,18,19.80
2007,06,26,15,19,19.80
2007,06,26,15,20,19.80
2007,06,26,15,21,19.70
2007,06,26,15,22,19.70
2007,06,26,15,23,19.70
2007,06,26,15,24,19.70
2007,06,26,15,25,19.70
2007,06,26,15,26,19.70
2007,06,26,15,27,19.60
2007,06,26,15,28,19.60
2007,06,26,15,29,19.60
2007,06,26,15,30,19.60
2007,06,26,15,31,19.60
2007,06,26,15,32,19.70
2007,06,26,15,33,19.70
2007,06,26,15,34,19.80
2007,06,26,15,35,19.80
2007,06,26,15,36,19.80
2007,06,26,15,37,19.70
2007,06,26,15,38,19.70
2007,06,26,15,39,19.60
2007,06,26,15,40,19.60
2007,06,26,15,41,19.60
2007,06,26,15,42,19.50
2007,06,26,15,43,19.50
2007,06,26,15,44,19.50
2007,06,26,15,45,19.50
2007,06,26,15,46,19.50
2007,06,26,15,47,19.50
2007,06,26,15,48,19.50
2007,06,26,15,49,19.60
2007,06,26,15,50,19.60
2007,06,26,15,51,19.70
2007,06,26,15,52,19.70
2007,06,26,15,53,19.70
2007,06,26,15,54,19.70
2007,06,26,15,55,19.70
2007,06,26,15,56,19.70
2007,06,26,15,57,19.70
2007,06,26,15,58,19.80
2007,06,26,15,59,19.90
2007,06,26,16,00,19.90
2007,06,26,16,01,20.00
2007,06,26,16,02,20.10
2007,06,26,16,03,20.10
2007,06,26,16,04,20.20
2007,06,26,16,05,20.20
2007,06,26,16,06,20.20
2007,06,26,16,07,20.20
2007,06,26,16,08,20.20
2007,06,26,16,09,20.20
2007,06,26,16,10,20.20
2007,06,26,16,11,20.30
2007,06,26,16,12,20.30
2007,06,26,16,13,20.30
2007,06,26,16,14,20.30
2007,06,26,16,15,20.30
2007,06,26,16,16,20.30
2007,06,26,16,17,20.20
2007,06,26,16,18,20.20
2007,06,26,16,19,20.20
2007,06,26,16,20,20.10
2007,06,26,16,21,20.10
2007,06,26,16,22,20.10
2007,06,26,16,23,20.00
2007,06,26,16,24,20.00
2007,06,26,16,25,20.00
2007,06,26,16,26,20.00
2007,06,26,16,27,20.00
2007,06,26,16,28,20.00
2007,06,26,16,29,20.00
2007,06,26,16,30,20.00
2007,06,26,16,31,20.00
2007,06,26,16,32,20.00
2007,06,26,16,33,20.00
2007,06,26,16,34,20.10
2007,06,26,16,35,20.10
2007,06,26,16,36,20.20
2007,06,26,16,37,20.20
2007,06,26,16,38,20.20
2007,06,26,16,39,20.20
2007,06,26,16,40,20.20
2007,06,26,16,41,20.20
2007,06,26,16,42,20.30
2007,06,26,16,43,20.40
2007,06,26,16,44,20.40
2007,06,26,16,45,20.40
2007,06,26,16,46,20.50
2007,06,26,16,47,20.50
2007,06,26,16,48,20.50
2007,06,26,16,49,20.50
2007,06,26,16,50,20.40
2007,06,26,16,51,20.40
2007,06,26,16,52,20.30
2007,06,26,16,53,20.30
2007,06,26,16,54,20.30
2007,06,26,16,55,20.20
2007,06,26,16,56,20.20
2007,06,26,16,57,20.10
2007,06,26,16,58,20.10
2007,06,26,16,59,20.00
2007,06,26,17,00,20.00
2007,06,26,17,01,20.00
2007,06,26,17,02,19.90
2007,06,26,17,03,19.90
2007,06,26,17,04,19.90
2007,06,26,17,05,20.00
2007,06,26,17,06,20.00
2007,06,26,17,07,20.00
2007,06,26,17,08,20.10
2007,06,26,17,09,20.20
2007,06,26,17,10,20.20
2007,06,26,17,11,20.20
2007,06,26,17,12,20.30
2007,06,26,17,13,20.30
2007,06,26,17,14,20.30
2007,06,26,17,15,20.30
2007,06,26,17,16,20.20
2007,06,26,17,17,20.20
2007,06,26,17,18,20.20
2007,06,26,17,19,20.20
2007,06,26,17,20,20.20
2007,06,26,17,21,20.20
2007,06,26,17,22,20.20
2007,06,26,17,23,20.20
2007,06,26,17,24,20.20
2007,06,26,17,25,20.20
2007,06,26,17,26,20.20
2007,06,26,17,27,20.20
2007,06,26,17,28,20.20
2007,06,26,17,29,20.20
2007,06,26,17,30,20.20
2007,06,26,17,31,20.20
2007,06,26,17,32,20.20
2007,06,26,17,33,20.20
2007,06,26,17,34,20.20
2007,06,26,17,35,20.20
2007,06,26,17,36,20.20